Location: Gwatt
(46.7204°N, 7.6223°E)
Time: 20:01:07
(UTC+00:00)

Transit 2A - Pass Details

Date: 23 January 2021
Orbit: 600 x 958 km, 66.7° (Epoch: 26 February)

Event Time Altitude Azimuth Distance (km) Brightness Sun altitude
Rises 13:27:16 0° 313° (NW) 2,978 8.9 19.8°
Reaches altitude 10° 13:30:16 10° 293° (WNW) 2,014 8.3 19.6°
Maximum altitude 13:33:11 17° 253° (WSW) 1,561 8.5 19.3°
Drops below altitude 10° 13:36:00 10° 212° (SSW) 1,946 10.6 19.1°
Sets 13:38:51 0° 192° (SSW) 2,834 10.3 18.9°
